OBJECT H, 60242

Orbit data source: Space-Track

You're viewing an uncataloged RSO

Recently launched and/or uncataloged RSOs may have evolving metadata. Metadata may include the following, but is not limited to: Owner, Manufacturer, Bus, Motor, and Mission.

OBJECT H, 60242 is a satellite in LEO that was launched on Tue, 09 Jul 2024 UTC via an ARIANE 62 launch vehicle from the French Guiana (FRGUI). Unknown objects in Earth's orbit typically refer to objects detected orbiting the Earth but have not yet been identified or cataloged. These objects could be anything from previously untracked satellites, spent rocket stages, debris from satellite collisions, or even natural meteoroids temporarily captured by Earth's gravity.

Loading next visibility...
Identifier
60242, 2024-128H
Orbit
LEO
Country
Flag of TBDTBD
Related business
Flag of DEPlanetary Transportation Systems GmbH (DE)
Manufacturer
PTS
Mission
Operational Commercial Technology
Bus & Motor
CUBESAT 12U, Unknown motor
Mass
24 kg wet, 24 kg dry
Launch date (UTC)
2024-07-09 (2 years ago)
Launch vehicle
ARIANE 62
Launch site
French Guiana (FRGUI)
Object type
Unknown
Shape & HBR
Box, 0.2 m
Radar Cross Section
0.080 m², Medium (>0.1 m² and < 1m²)

Expand to show TLE details & history
Last TLE update: 17 hours ago

TLE from 17 hours ago
0 OBJECT H
1 60242U 24128H   26264.58632162  .00004500  00000-0  25931-3 0  9996
2 60242  61.9772 224.0196 0025711 149.8421 210.4162 15.13689037121044
Epoch: 2026-09-21T14:04Z
TLE epoch observation values (Epoch: 2026-09-21T14:04:18.187Z)
Latitude
-0.00003°
Longitude
12.47978°
Altitude
542.058 km
Speed
7.584 km/s
True Right ascension
14h 56m 04s
True Declination
0° 00' 00"
Sunlit
Object was in daylight at epoch
Visualization orbit readout
Latitude
Unknown
Longitude
Unknown
Altitude
Unknown
Speed
Unknown
Apparent Right ascension
Unknown
Apparent Declination
Unknown
Sunlit
N/A
Visualization observer readout
Local Sidereal Time
00:05:36
Azimuth
Unknown
Elevation
Unknown
Doppler factor
Unknown
Orbital elements
Apogee altitude
541.634 km
Perigee altitude
506.142 km
Semi-major axis
6,902.025 km
Eccentricity
0.00257
Inclination
61.9772°
RAAN
224.0196°
Arg. of periapsis
149.8421°
True anomaly
210.26745°
Mean anomaly
210.4162°
Eccentric anomaly
210.34178°
Mean motion
3.78511 °/min
Orbital period
95.11 mins
BSTAR
0.00025931
Loading maneuver chart data...
Computing Atmospheric mass density...
Loading historical data...
Loading historical data...
Loading historical data...
Loading historical data...
Loading historical data...
Loading historical data...
Loading historical data...

Documentation

Showing up to 5 results
|